Tracking 28895 objects as of 27-May-2024
HD Live streaming from Space Station
objects crossing your sky now

ELECTRON KICK STAGE R/B

Track ELECTRON KICK STAGE R/B now!
10-day predictions


NORAD ID: 56752
Int'l Code: 2023-073A
Perigee: 511.0 km
Apogee: 521.5 km
Inclination: 32.7 °
Period: 94.8 minutes
Semi major axis: 6887 km
RCS: Unknown
Launch date: May 26, 2023
Source: United States (US)
Launch site: Rocket Lab Launch Complex (RLLC)

Note: This is a ROCKET BODY
Your satellite tracking list
Your tracking list is empty




NASA's NSSDC Master Catalog

Two Line Element Set (TLE):
1 56752U 23073A   24147.89946577  .00020677  00000-0  96092-3 0  9994
2 56752  32.7337  39.0938 0007605 123.1503 236.9900 15.18927278 55534
Source of the keplerian elements: AFSPC